Wind_Speed
20 20 18 17 18 17 17 20 21 22 21 21 23 22 21 21 21 21 22 25 30 33 36 39 40 42 44 46 48 49 50 51 52 53 54 54 54 54 54 53 53 54 53 53
18 18 19 18 19 19 20 23 24 24 24 25 24 21 21 20 20 22 25 30 34 37 40 42 43 45 47 49 52 53 53 55 57 59 59 57 58 58 57 55 56 54 52 50
19 20 20 20 19 20 21 21 24 26 27 27 26 25 22 21 21 24 28 33 37 39 40 43 44 47 49 51 53 54 57 60 62 62 60 61 61 61 60 58 58 59 57 55
20 21 21 20 19 19 20 21 23 26 28 28 26 29 23 23 25 29 34 37 39 41 43 45 45 48 51 52 54 57 60 63 64 63 62 63 63 61 59 58 58 58 59 60
19 20 21 21 20 22 23 22 24 26 25 27 26 28 25 27 30 34 37 40 42 43 45 45 47 49 51 54 57 61 63 63 62 63 65 66 65 64 63 63 61 58 57 56
20 21 21 20 20 21 22 24 25 25 26 26 26 28 29 31 35 38 41 42 42 44 44 46 48 51 54 57 59 62 62 62 63 65 67 67 67 65 65 64 62 61 58 56
19 22 23 23 22 22 22 22 26 27 26 27 28 32 31 34 37 40 41 41 42 42 44 47 50 53 56 58 60 59 60 61 63 64 66 66 67 67 65 62 61 61 60 59
16 17 19 21 22 23 22 22 23 28 28 29 31 34 36 37 39 40 41 41 42 44 47 48 51 53 56 56 57 59 61 63 64 65 67 69 67 63 60 60 60 58 57 59
17 17 16 17 18 20 22 23 24 29 31 33 35 37 37 37 38 38 38 41 45 46 49 52 54 56 56 57 58 60 61 62 65 66 64 60 57 56 55 54 52 55 57 56
14 16 16 16 18 21 24 25 27 30 35 38 40 42 37 36 38 38 40 42 46 49 52 55 56 57 57 58 59 60 62 66 63 61 57 53 51 50 48 47 49 45 42 43
16 18 20 22 23 25 27 29 31 33 36 39 41 40 36 38 38 40 42 45 49 52 54 56 56 58 57 58 59 62 64 62 59 57 53 50 50 43 43 42 38 37 36 37
21 21 23 24 26 27 28 30 31 33 33 34 37 38 34 38 39 42 46 48 50 52 53 55 57 56 56 58 61 61 60 58 55 54 51 47 40 41 37 36 35 32 31 33
25 25 27 27 28 28 29 30 30 31 32 31 33 34 38 40 42 44 46 48 51 53 55 56 56 56 58 59 59 58 58 53 52 50 45 42 37 33 31 28 26 27 27 28
26 26 27 29 31 30 30 30 30 31 32 32 32 35 38 40 43 46 48 51 54 54 54 54 55 58 59 58 59 56 49 49 47 44 35 27 26 24 20 19 21 23 24 23
26 27 29 31 32 31 28 29 29 29 32 33 35 36 38 42 45 48 49 52 52 51 53 55 57 58 58 58 54 46 44 45 40 27 25 21 21 19 20 20 20 22 23 16
27 27 28 27 29 26 23 25 26 28 30 32 35 38 41 44 47 47 48 51 50 52 55 57 58 56 57 53 47 44 42 37 27 22 21 21 20 21 22 22 22 22 19 18
26 27 25 23 24 23 20 23 26 28 30 33 36 39 42 44 46 46 48 49 51 54 56 55 54 53 49 46 45 41 33 27 22 20 21 20 23 23 22 20 19 21 21 19
24 25 23 19 20 19 20 24 25 27 31 33 37 41 44 45 45 45 49 51 53 56 53 53 48 45 44 43 39 30 23 21 18 19 22 24 25 22 22 25 28 28 25 21
23 22 20 18 19 18 20 23 26 27 29 36 40 43 42 42 43 46 49 52 53 50 50 47 42 41 39 34 25 20 19 16 18 20 22 24 22 25 26 22 19 22 19 15
21 19 18 18 19 19 18 22 25 31 36 39 42 43 42 42 45 49 52 51 48 48 46 44 40 35 28 19 16 15 14 16 18 19 20 23 21 18 19 19 18 16 15 13
19 17 16 18 19 19 21 26 31 36 40 44 45 44 44 48 51 51 49 48 46 44 39 32 23 15 12 11 11 11 13 16 20 21 17 17 20 20 20 19 17 14 11 10
18 18 18 18 19 20 22 27 32 37 41 41 41 44 48 50 49 48 48 44 38 29 24 23 18 13 10 7 9 11 16 19 15 15 19 21 22 20 16 13 12 10 7 6
17 16 16 16 17 19 24 30 37 43 42 40 43 48 48 48 48 46 40 34 26 19 21 18 14 10 10 11 11 16 14 14 18 20 22 19 13 12 12 11 9 8 7 3
16 14 12 14 18 22 29 33 41 43 39 42 42 44 45 43 41 35 32 27 17 18 16 12 11 12 11 13 16 14 17 19 19 16 13 14 16 13 13 11 10 9 5 2
14 13 13 16 20 26 30 36 41 40 39 39 35 44 47 40 38 33 27 18 14 11 9 11 11 11 14 15 16 17 17 15 13 15 18 17 14 13 12 8 10 11 6 5
15 15 15 18 23 26 33 39 40 39 38 31 34 42 48 40 34 26 16 10 8 7 10 10 11 14 15 15 15 14 15 17 19 16 17 17 15 13 10 7 9 12 9 10
Wind_Direction
260 258 258 259 261 262 263 263 260 258 262 266 272 274 266 266 271 284 294 298 301 305 307 304 303 304 303 302 300 298 294 293 294 296 298 301 304 302 301 299 297 297 295 289
265 265 263 259 261 262 262 264 269 274 275 278 278 276 274 275 279 290 298 301 304 304 301 303 305 304 302 301 299 297 297 297 297 297 300 302 303 303 300 298 297 296 294 287
267 263 261 257 255 259 264 269 272 273 277 276 279 280 278 280 288 293 294 297 298 298 299 300 301 300 299 298 298 298 299 298 298 299 302 304 305 303 302 302 300 299 296 291
264 261 262 262 261 265 268 271 274 274 276 275 277 280 277 280 289 292 294 296 299 300 302 302 300 300 301 300 299 298 298 299 302 304 304 304 303 300 299 296 295 296 296 293
267 265 263 264 264 262 263 269 270 268 268 271 276 279 286 290 292 293 298 300 303 303 303 303 303 301 300 298 299 300 302 303 303 303 304 303 301 300 299 297 296 296 292 291
268 270 270 269 267 269 270 264 265 269 271 272 275 279 286 292 294 298 301 305 306 305 303 302 300 299 300 301 302 304 305 304 303 303 301 301 300 299 298 296 296 295 290 285
269 269 270 271 269 267 267 268 273 273 271 274 274 278 288 293 298 302 305 305 301 299 298 298 298 300 302 303 303 303 301 301 301 300 300 301 301 300 299 298 296 293 290 286
276 272 269 272 271 269 269 270 273 276 276 277 282 289 295 301 302 302 302 299 298 299 299 299 300 301 302 303 303 303 303 303 304 304 303 302 300 298 297 297 297 295 293 291
272 272 273 269 269 270 267 269 271 276 278 283 286 291 295 303 302 303 302 301 301 302 303 303 302 305 307 307 305 304 305 304 304 305 303 303 300 296 295 298 298 298 296 293
273 275 275 272 269 269 271 274 278 282 288 292 296 299 307 306 304 302 302 302 304 305 304 305 307 308 307 306 306 305 305 308 310 308 308 308 306 303 302 301 303 303 303 304
281 271 271 272 274 276 278 280 285 288 292 295 298 302 306 303 302 305 306 307 306 307 306 307 305 306 306 307 306 308 311 312 310 311 310 308 308 306 306 304 304 306 312 312
278 276 276 275 277 279 282 285 287 288 292 295 297 302 301 302 306 306 307 307 306 304 305 305 306 306 306 307 309 312 312 312 310 309 308 308 307 310 307 308 307 310 318 318
281 282 283 284 282 284 285 287 289 293 294 294 296 299 304 306 306 304 304 306 306 307 306 306 307 308 309 310 311 311 311 309 309 309 309 310 310 312 313 309 312 309 310 319
284 286 287 289 288 289 290 290 292 293 295 297 300 304 303 304 306 308 308 308 308 309 308 308 309 310 310 311 311 311 310 310 313 316 315 316 317 317 314 321 324 321 316 312
284 285 285 286 287 291 293 293 296 297 296 300 302 303 306 308 309 309 310 308 310 309 308 309 310 311 312 312 312 312 314 315 317 319 319 321 323 316 320 326 328 331 332 330
288 287 286 288 287 289 290 292 292 292 296 300 304 307 309 310 309 309 309 309 312 310 311 312 313 312 312 310 311 313 316 315 317 319 322 328 324 327 328 327 325 325 330 346
291 287 287 287 285 288 291 289 292 297 301 303 307 308 309 309 311 312 310 311 310 312 314 313 311 311 309 308 309 315 315 316 316 319 324 316 317 320 323 325 317 311 309 313
288 285 286 284 284 287 293 291 296 300 304 308 309 309 310 313 314 312 311 313 316 315 314 312 311 309 305 307 311 314 317 316 321 323 317 314 317 319 319 317 316 313 298 290
282 282 284 285 286 292 292 298 301 305 308 309 309 311 315 313 312 312 313 315 314 315 316 314 310 305 307 311 313 318 315 318 323 323 320 317 317 317 320 326 330 334 335 305
280 280 284 288 291 296 300 302 307 312 310 313 314 316 314 315 315 314 317 318 319 320 321 314 309 307 309 315 323 321 327 322 328 328 323 323 330 342 335 327 321 325 332 339
281 283 286 290 296 304 311 316 320 320 321 321 319 318 319 318 318 321 322 323 324 329 327 332 332 325 331 333 329 328 330 339 335 327 334 339 329 320 313 311 308 307 309 319
278 284 289 296 305 310 319 324 328 328 324 320 320 319 319 320 322 321 322 324 329 331 343 348 351 356 352 347 340 344 344 341 341 339 333 325 319 314 313 315 313 304 287 290
272 281 287 299 306 315 322 329 334 332 325 321 320 322 322 321 319 320 323 328 334 339 340 357 358 10 7 5 360 349 356 350 342 332 323 328 340 341 346 347 343 335 315 269
273 281 291 302 314 319 324 329 331 329 322 320 325 334 330 327 324 325 330 334 341 343 6 3 10 15 16 2 1 6 350 341 333 340 353 346 346 351 2 2 360 348 328 242
267 278 292 313 319 323 327 330 326 321 318 321 322 331 335 329 326 330 334 342 348 12 13 19 19 13 2 14 2 349 345 354 359 359 2 4 12 14 12 10 34 35 55 123
272 281 298 312 321 322 326 323 321 319 319 315 319 328 330 323 323 329 341 2 29 33 27 29 15 12 22 360 353 13 24 15 10 12 26 31 30 30 31 49 53 58 75 103
Height
5858 5859 5858 5858 5858 5858 5859 5858 5858 5858 5859 5858 5858 5858 5858 5858 5856 5854 5852 5850 5847 5844 5841 5837 5833 5830 5825 5820 5816 5811 5806 5802 5798 5793 5789 5785 5780 5775 5769 5764 5759 5755 5751 5746
5854 5854 5854 5854 5854 5855 5854 5854 5854 5854 5854 5853 5853 5853 5853 5853 5851 5848 5845 5842 5839 5836 5832 5828 5824 5819 5814 5809 5803 5798 5793 5789 5784 5779 5774 5770 5765 5759 5754 5750 5744 5740 5737 5733
5849 5850 5850 5850 5850 5850 5850 5850 5850 5849 5848 5848 5847 5848 5848 5847 5844 5842 5839 5836 5832 5829 5825 5821 5815 5810 5804 5798 5792 5786 5780 5774 5769 5765 5761 5754 5748 5742 5736 5732 5726 5721 5718 5715
5845 5845 5845 5846 5846 5846 5846 5846 5845 5844 5843 5842 5843 5841 5842 5841 5838 5835 5832 5828 5824 5820 5815 5810 5805 5799 5793 5787 5782 5776 5769 5763 5757 5751 5746 5740 5734 5728 5722 5717 5713 5707 5699 5695
5841 5840 5840 5841 5841 5841 5841 5840 5839 5838 5837 5837 5838 5835 5835 5833 5831 5827 5824 5820 5815 5810 5806 5800 5794 5788 5782 5777 5771 5765 5759 5753 5746 5739 5731 5724 5718 5712 5706 5701 5696 5691 5686 5679
5835 5835 5836 5836 5836 5835 5835 5834 5833 5833 5833 5833 5831 5830 5829 5826 5823 5819 5816 5812 5806 5801 5796 5790 5784 5778 5772 5766 5760 5753 5746 5739 5732 5724 5717 5710 5703 5697 5691 5685 5679 5674 5669 5665
5830 5830 5830 5831 5831 5830 5830 5830 5828 5828 5828 5827 5825 5823 5824 5820 5817 5812 5807 5802 5797 5792 5787 5781 5774 5768 5762 5756 5749 5742 5734 5726 5718 5710 5703 5695 5687 5680 5673 5667 5661 5656 5650 5647
5825 5826 5826 5826 5825 5825 5825 5825 5824 5821 5822 5821 5819 5817 5816 5814 5809 5803 5798 5793 5788 5784 5778 5773 5766 5759 5753 5746 5738 5730 5721 5714 5705 5696 5688 5679 5671 5663 5657 5651 5645 5638 5633 5629
5821 5821 5820 5820 5820 5820 5819 5819 5819 5817 5816 5814 5813 5811 5810 5806 5800 5795 5790 5784 5779 5774 5769 5762 5755 5748 5740 5732 5725 5717 5709 5701 5692 5683 5673 5665 5656 5649 5643 5637 5630 5625 5619 5612
5819 5817 5816 5815 5815 5815 5814 5815 5814 5811 5808 5806 5803 5799 5800 5794 5790 5786 5781 5776 5770 5764 5757 5749 5743 5736 5729 5721 5713 5704 5695 5686 5676 5666 5658 5651 5643 5636 5631 5625 5618 5612 5606 5600
5814 5814 5813 5811 5810 5809 5809 5808 5808 5805 5803 5798 5794 5792 5789 5784 5780 5776 5770 5765 5759 5752 5745 5738 5731 5724 5717 5709 5699 5690 5681 5672 5663 5654 5646 5638 5631 5625 5619 5613 5609 5603 5596 5590
5809 5808 5806 5806 5805 5804 5803 5802 5800 5798 5796 5792 5787 5785 5780 5775 5771 5766 5761 5756 5749 5742 5735 5727 5720 5713 5705 5696 5686 5677 5668 5660 5651 5643 5635 5628 5621 5615 5610 5605 5600 5595 5589 5583
5803 5803 5800 5800 5800 5798 5796 5794 5792 5790 5787 5784 5780 5777 5771 5767 5763 5758 5752 5745 5737 5730 5722 5715 5708 5699 5692 5683 5674 5665 5656 5648 5640 5632 5624 5617 5611 5608 5604 5599 5593 5589 5583 5577
5797 5796 5795 5793 5790 5790 5789 5786 5784 5782 5778 5775 5773 5769 5765 5760 5754 5747 5740 5733 5725 5718 5710 5703 5696 5687 5678 5669 5661 5652 5644 5636 5629 5621 5613 5609 5606 5602 5598 5593 5588 5584 5579 5573
5791 5789 5788 5786 5783 5782 5781 5777 5775 5773 5769 5767 5765 5761 5756 5750 5744 5737 5731 5722 5716 5709 5700 5692 5683 5674 5665 5656 5648 5641 5634 5627 5620 5614 5610 5605 5601 5598 5594 5590 5586 5582 5577 5571
5783 5782 5780 5779 5775 5775 5775 5772 5770 5767 5764 5761 5756 5752 5746 5741 5734 5728 5720 5712 5705 5697 5689 5680 5670 5661 5653 5644 5638 5632 5626 5619 5614 5610 5606 5601 5599 5595 5590 5587 5583 5579 5575 5571
5775 5773 5773 5772 5769 5768 5770 5767 5764 5761 5758 5754 5750 5744 5738 5732 5725 5717 5710 5702 5694 5686 5677 5668 5658 5650 5641 5634 5628 5624 5619 5613 5609 5606 5602 5598 5595 5590 5586 5582 5579 5575 5572 5569
5769 5766 5766 5766 5764 5765 5763 5760 5758 5755 5751 5747 5742 5736 5730 5723 5715 5707 5698 5691 5683 5673 5664 5655 5646 5639 5631 5625 5621 5616 5612 5608 5605 5601 5597 5594 5590 5586 5582 5578 5575 5571 5566 5564
5761 5760 5760 5760 5759 5759 5757 5754 5752 5748 5746 5739 5733 5727 5721 5713 5707 5697 5690 5682 5671 5661 5651 5642 5634 5628 5623 5619 5614 5610 5607 5604 5600 5597 5593 5590 5586 5582 5578 5574 5571 5567 5562 5559
5755 5755 5756 5754 5753 5753 5752 5749 5746 5742 5738 5732 5725 5718 5711 5703 5697 5689 5680 5669 5659 5650 5639 5630 5623 5618 5615 5612 5609 5606 5603 5600 5597 5593 5590 5586 5582 5578 5575 5572 5569 5566 5562 5559
5749 5749 5749 5748 5747 5746 5744 5740 5737 5733 5729 5719 5713 5705 5699 5692 5685 5677 5667 5657 5648 5639 5630 5622 5615 5611 5609 5608 5606 5603 5600 5598 5594 5590 5587 5583 5578 5575 5571 5568 5565 5563 5561 5559
5744 5744 5743 5742 5741 5741 5737 5734 5731 5725 5717 5710 5704 5698 5690 5682 5674 5666 5658 5649 5642 5635 5628 5622 5616 5611 5608 5606 5604 5603 5599 5595 5591 5587 5583 5579 5575 5571 5567 5564 5561 5559 5558 5558
5739 5739 5739 5739 5737 5734 5730 5726 5720 5714 5708 5703 5696 5688 5680 5673 5665 5657 5650 5643 5637 5632 5627 5621 5617 5613 5610 5608 5605 5601 5597 5594 5589 5585 5580 5575 5571 5567 5563 5560 5558 5556 5555 5556
5733 5733 5734 5732 5731 5727 5723 5719 5713 5707 5701 5695 5689 5682 5673 5665 5656 5649 5644 5638 5633 5630 5626 5622 5619 5615 5612 5608 5605 5601 5597 5592 5587 5582 5577 5573 5568 5564 5561 5558 5555 5553 5551 5552
5729 5729 5728 5727 5724 5720 5716 5712 5706 5700 5694 5689 5682 5675 5667 5659 5651 5645 5640 5635 5632 5630 5626 5624 5620 5617 5614 5610 5606 5601 5596 5591 5586 5580 5575 5569 5565 5562 5559 5557 5555 5551 5550 5550
5724 5723 5723 5721 5718 5715 5710 5705 5700 5694 5689 5683 5678 5671 5662 5653 5647 5642 5638 5635 5633 5631 5628 5625 5623 5620 5615 5611 5606 5601 5596 5591 5585 5580 5575 5570 5566 5563 5559 5556 5554 5553 5552 5553